Tracking 25656 objects as of 21-May-2022
HD Live streaming from Space Station
objects crossing your sky now

LEMUR 2 NOGUECORREIG

Track LEMUR 2 NOGUECORREIG now!
10-day predictions
LEMUR 2 NOGUECORREIG is classified as:


NORAD ID: 41996
Int'l Code: 2017-008BA
Perigee: 466.4 km
Apogee: 473.6 km
Inclination: 97.3 °
Period: 93.9 minutes
Semi major axis: 6841 km
RCS: Unknown
Launch date: February 15, 2017
Source: United States (US)
Launch site: SRIHARIKOTA (SRI)
aabbcc
Your satellite tracking list
Your tracking list is empty




NASA's NSSDC Master Catalog

Two Line Element Set (TLE):
1 41996U 17008BA  22141.13474815  .00033481  00000-0  10056-2 0  9991
2 41996  97.2724 207.1447 0005284 351.5821   8.5332 15.34342562292099
Source of the keplerian elements: AFSPC